Wind_Speed
49 53 51 48 44 43 40 38 34 30 28 24 22 21 17 18 19 17 17 14 14 14 15 15 18 21 22 23 24 27 30 34 35 40 37 33 35 34 34 30 28 28 27 30
46 51 52 49 46 44 41 39 33 31 28 24 23 21 19 20 18 17 16 13 12 13 15 17 19 21 22 25 29 32 35 40 39 42 43 39 36 36 33 29 28 28 27 26
46 46 51 51 49 45 42 39 36 32 29 24 23 22 19 18 18 18 15 12 13 14 16 18 18 21 26 30 34 38 41 44 45 40 39 35 33 28 28 29 28 27 25 22
49 46 45 52 50 46 44 41 38 32 29 26 25 23 19 19 17 15 15 12 13 13 14 16 21 25 28 29 33 37 41 45 46 41 40 36 34 27 27 26 26 26 24 22
49 50 46 49 52 48 45 42 39 35 28 25 24 21 19 19 16 15 12 13 11 11 13 17 17 19 26 28 30 30 31 26 22 15 19 21 22 21 23 23 22 23 22 19
48 52 49 48 51 49 46 43 40 34 30 27 24 22 20 17 15 14 13 10 8 9 11 9 14 19 20 23 23 24 18 5 6 5 8 9 9 14 16 16 20 22 17 14
49 51 51 49 51 51 48 42 38 34 30 27 26 21 19 17 15 14 11 9 6 6 3 9 13 16 20 23 25 24 18 9 6 5 7 6 5 7 10 12 13 13 10 9
50 49 51 51 52 52 46 44 41 36 31 29 26 25 20 19 17 13 12 8 5 3 1 8 14 17 20 23 24 24 23 15 11 10 8 6 5 5 6 6 6 6 7 6
53 50 51 52 53 50 48 44 41 37 33 32 28 24 23 21 18 15 12 8 8 5 1 6 13 17 19 21 20 22 23 23 17 15 14 13 13 12 11 9 9 6 3 5
55 53 50 53 52 51 48 44 42 39 35 31 31 27 25 23 19 16 13 9 10 4 1 2 9 13 16 18 20 19 20 21 21 19 18 17 16 15 13 10 5 1 4 7
57 56 52 53 52 52 50 44 43 40 37 33 30 29 29 25 22 20 15 12 12 4 1 0 5 8 12 13 15 15 16 16 16 17 17 17 15 12 8 4 3 5 8 11
60 58 55 52 53 52 52 46 44 41 38 33 32 31 31 25 21 18 15 14 14 7 3 1 2 3 7 8 8 10 11 12 13 13 12 11 9 7 5 4 6 9 12 15
62 62 58 55 54 52 50 46 45 43 40 37 35 33 30 27 23 20 17 15 14 8 4 1 3 2 2 3 3 4 5 8 7 7 6 6 5 5 7 10 14 17 20 22
65 64 60 57 56 52 50 49 47 44 42 40 37 37 33 28 25 21 19 16 14 11 6 2 2 2 3 3 2 2 4 5 5 5 4 6 8 10 14 17 21 22 22 22
67 65 63 60 56 54 52 50 48 45 43 41 38 36 33 30 26 22 20 18 17 15 10 7 4 1 1 4 6 5 5 7 8 10 12 13 15 17 20 22 21 19 18 18
68 66 63 61 59 54 52 53 51 48 44 43 41 37 34 31 26 23 21 18 17 16 11 10 7 6 3 3 3 6 7 9 12 14 15 16 16 17 18 16 17 18 19 20
70 68 65 61 59 55 54 54 50 47 44 43 40 38 35 31 27 23 20 19 18 16 14 12 11 8 6 5 4 4 4 5 7 9 10 12 13 15 16 17 18 19 20 21
71 69 65 61 60 55 55 52 50 48 46 46 44 40 36 31 27 23 21 18 18 16 14 14 12 10 6 4 2 2 4 6 7 8 10 11 12 14 15 16 18 20 21 23
71 68 64 62 61 57 56 54 52 50 50 49 43 39 34 30 25 23 21 19 17 15 15 15 11 9 6 4 2 3 4 4 7 10 12 13 15 16 19 20 21 21 23 24
70 67 65 64 61 58 56 55 54 52 50 48 42 38 33 29 27 23 20 19 18 15 14 13 11 9 6 3 3 3 3 6 10 13 15 18 19 21 21 22 23 23 23 22
70 67 65 64 61 57 57 57 56 53 52 49 43 38 34 31 27 23 22 19 16 16 14 13 10 9 4 2 2 4 7 10 13 17 19 20 21 22 23 22 22 22 17 14
72 68 68 66 58 57 60 59 58 55 52 47 41 37 33 30 26 24 23 20 17 15 15 12 10 7 4 3 4 7 10 13 15 18 21 23 23 22 21 20 19 13 12 15
71 68 67 66 62 64 64 62 58 56 51 47 41 36 32 31 28 23 22 19 15 15 12 11 9 7 5 5 6 8 10 12 16 19 23 24 22 20 18 16 11 11 14 19
70 68 70 68 66 68 64 58 55 50 45 41 38 35 31 29 25 23 22 19 16 14 12 10 8 6 5 5 5 6 9 13 18 22 24 24 21 15 13 12 12 14 18 21
70 71 75 70 66 63 59 56 49 45 43 40 36 32 30 29 26 23 22 20 16 14 12 10 8 6 5 4 4 6 10 15 19 23 24 23 15 9 13 14 13 16 18 22
72 78 74 65 62 59 51 51 46 45 42 40 38 35 32 31 27 23 21 19 15 13 11 9 7 6 4 3 4 6 10 15 20 23 25 23 8 15 17 15 17 20 22 26
75 80 73 64 57 53 52 50 46 45 43 40 37 36 33 29 27 22 19 17 15 12 11 9 8 6 4 2 3 5 10 15 20 24 26 17 13 20 18 19 24 25 25 26
Wind_Direction
213 211 213 218 217 217 220 221 223 224 227 226 231 236 238 236 238 246 256 262 257 251 269 279 282 284 289 289 288 285 284 283 281 281 280 271 267 263 261 256 257 259 260 267
212 211 211 215 216 215 218 220 220 224 225 225 228 233 236 235 238 249 255 254 243 265 274 279 283 289 289 288 287 287 286 281 279 278 278 272 265 261 261 259 255 254 259 269
213 210 212 213 212 213 215 219 219 222 223 223 228 230 233 235 242 250 245 246 251 270 279 286 294 294 293 294 295 290 287 282 277 274 272 265 266 265 254 252 252 256 256 260
211 212 210 211 210 210 212 216 219 219 218 219 224 228 227 237 243 242 235 239 254 272 285 295 301 305 307 304 303 297 290 282 281 273 268 266 266 259 253 248 241 243 238 240
208 210 210 209 211 207 210 213 215 217 215 218 224 226 228 241 242 223 226 236 258 278 293 308 316 317 316 319 318 311 302 291 291 288 279 262 255 251 247 240 234 229 232 240
207 208 209 208 208 207 207 209 211 213 211 213 219 220 225 234 214 206 218 241 259 287 306 329 329 328 334 339 343 343 342 330 337 13 12 359 283 239 231 230 228 230 239 249
206 206 207 208 205 207 205 208 209 210 210 211 215 216 219 211 201 207 225 233 257 285 319 346 351 355 357 2 12 16 19 33 88 13 341 319 307 218 210 223 227 235 244 237
206 204 205 206 204 205 206 206 206 206 205 209 207 210 207 201 197 207 220 222 243 209 317 18 21 19 18 21 26 37 46 57 62 50 60 69 100 146 181 194 199 203 200 229
205 203 204 205 204 204 205 204 204 202 202 206 205 204 201 195 199 208 208 210 196 200 176 35 37 31 30 33 35 46 57 64 72 71 80 88 101 112 124 139 148 171 215 285
204 202 202 204 204 201 201 203 202 198 201 199 202 199 198 193 202 202 204 198 183 181 184 33 42 36 39 43 49 55 62 70 78 86 93 100 105 112 119 123 128 265 312 320
202 201 201 202 203 201 200 200 199 197 197 198 198 197 197 195 198 199 198 191 191 176 164 39 41 40 47 52 61 70 71 75 81 85 94 98 97 101 98 75 30 347 341 337
200 200 200 200 202 200 199 199 196 195 194 195 196 196 194 197 199 201 202 197 198 197 221 287 356 36 51 55 76 77 76 74 76 80 82 79 77 73 54 20 348 332 327 324
198 198 198 199 200 196 194 194 193 192 191 193 195 194 193 197 195 200 200 195 196 198 215 244 273 274 356 25 53 48 44 40 48 54 62 56 38 9 343 331 325 323 322 320
195 195 197 198 197 192 192 193 191 191 194 191 191 190 195 194 196 200 198 195 195 195 209 254 279 250 265 293 299 333 352 352 348 339 348 341 324 318 316 317 318 317 317 318
193 192 194 196 192 189 190 189 189 190 191 190 191 192 194 196 196 200 198 200 199 209 223 240 260 304 297 264 268 289 301 305 313 307 312 313 313 316 315 316 317 321 326 326
189 190 192 193 188 185 186 187 188 189 191 188 191 191 194 197 198 201 200 200 205 215 220 228 248 272 297 303 287 285 292 299 305 302 305 309 311 311 316 321 325 325 326 327
187 188 191 190 186 185 187 188 188 188 187 189 191 191 194 195 200 200 201 202 207 213 219 233 252 262 279 276 288 311 309 314 308 307 307 309 315 322 325 327 331 333 332 330
185 186 188 186 184 185 187 186 189 187 188 190 191 191 194 195 198 196 198 199 203 209 218 230 243 246 256 244 239 290 316 312 318 322 327 333 333 334 333 335 337 334 329 324
181 183 185 182 180 185 186 186 188 188 189 189 189 192 194 196 196 195 198 197 197 203 217 229 232 232 224 221 235 287 309 323 347 345 343 339 337 336 340 338 331 326 325 323
176 177 182 180 179 182 185 187 188 188 190 188 190 190 191 195 193 196 194 192 195 203 214 216 210 214 219 223 261 298 325 334 339 333 331 331 333 336 334 330 328 327 324 341
168 178 178 177 177 182 185 188 187 187 188 187 187 187 191 190 190 195 192 191 189 199 206 205 199 201 216 253 308 323 328 329 331 326 326 329 332 332 330 330 328 329 5 28
174 176 175 174 172 186 187 188 188 185 186 185 186 187 190 189 189 193 189 187 188 190 206 205 202 202 228 277 310 315 318 325 324 322 324 327 329 332 331 329 337 25 41 43
172 173 175 170 178 188 188 189 185 183 182 184 186 186 186 187 191 188 188 184 179 192 199 203 207 212 240 274 297 308 316 320 319 320 324 328 331 335 332 346 36 53 38 22
172 175 171 178 185 188 188 186 181 178 180 183 184 185 188 187 188 186 183 180 186 190 195 202 206 216 240 258 283 307 322 321 319 323 325 328 339 339 353 49 64 45 30 28
170 173 175 182 186 189 187 182 173 177 181 183 182 182 184 188 188 185 182 181 187 195 200 205 210 220 235 257 300 327 325 321 323 322 328 335 344 8 69 77 61 39 51 72
173 175 180 183 184 185 182 173 175 178 179 180 183 185 186 185 182 181 185 188 194 196 198 205 209 221 242 269 329 329 327 325 323 328 334 340 17 88 86 71 55 80 83 84
176 180 181 182 181 181 176 175 174 177 182 183 184 183 186 181 176 176 180 184 188 193 204 209 214 223 236 281 313 330 332 328 331 336 342 2 89 88 79 81 99 94 87 77
Height
5664 5675 5685 5693 5703 5711 5720 5727 5732 5737 5742 5746 5749 5751 5753 5757 5758 5759 5760 5760 5760 5761 5761 5760 5759 5758 5756 5754 5751 5748 5746 5742 5741 5735 5735 5735 5731 5731 5730 5730 5733 5731 5730 5729
5656 5666 5676 5685 5695 5705 5713 5720 5727 5732 5736 5740 5744 5747 5750 5753 5754 5755 5756 5757 5757 5758 5758 5757 5756 5754 5752 5748 5745 5741 5739 5732 5731 5726 5723 5723 5722 5721 5723 5725 5724 5725 5725 5725
5649 5658 5668 5677 5687 5697 5706 5714 5721 5726 5731 5737 5741 5744 5747 5749 5750 5751 5753 5754 5755 5755 5755 5754 5752 5750 5746 5743 5738 5733 5728 5722 5719 5718 5714 5713 5714 5714 5714 5715 5717 5719 5719 5719
5641 5651 5660 5669 5680 5690 5699 5707 5714 5722 5727 5732 5736 5740 5744 5745 5746 5748 5750 5751 5752 5752 5752 5751 5748 5744 5740 5735 5729 5722 5716 5709 5703 5703 5701 5701 5702 5705 5706 5708 5710 5712 5712 5713
5633 5643 5652 5662 5673 5683 5693 5702 5709 5717 5723 5728 5732 5736 5739 5742 5744 5746 5748 5750 5750 5750 5750 5748 5744 5740 5734 5728 5720 5712 5703 5697 5693 5692 5692 5693 5693 5697 5700 5703 5705 5707 5709 5711
5626 5636 5646 5655 5665 5676 5686 5694 5703 5711 5717 5723 5728 5733 5736 5738 5740 5743 5746 5747 5748 5748 5748 5745 5742 5737 5731 5725 5717 5707 5698 5695 5693 5693 5692 5690 5691 5693 5697 5701 5703 5705 5708 5710
5619 5628 5639 5648 5659 5669 5680 5690 5698 5707 5714 5719 5724 5729 5732 5735 5738 5742 5744 5745 5746 5747 5746 5744 5740 5735 5729 5723 5715 5706 5698 5696 5695 5695 5694 5694 5693 5694 5697 5701 5703 5706 5708 5709
5611 5621 5632 5642 5653 5663 5673 5683 5693 5701 5709 5714 5721 5725 5729 5733 5736 5740 5743 5744 5745 5745 5745 5743 5739 5735 5730 5724 5717 5710 5703 5699 5699 5698 5696 5696 5695 5698 5701 5703 5706 5707 5708 5709
5604 5615 5625 5636 5647 5656 5667 5678 5687 5695 5704 5709 5717 5722 5726 5730 5734 5738 5741 5742 5743 5744 5744 5742 5739 5736 5732 5727 5721 5716 5712 5707 5705 5702 5702 5701 5701 5702 5704 5706 5708 5709 5709 5709
5596 5608 5618 5630 5640 5651 5662 5673 5682 5690 5699 5706 5712 5717 5724 5728 5732 5735 5738 5740 5742 5743 5742 5742 5739 5738 5734 5730 5726 5722 5719 5715 5712 5710 5709 5708 5708 5708 5710 5711 5715 5711 5710 5708
5588 5601 5612 5624 5634 5645 5656 5668 5677 5686 5694 5701 5709 5714 5720 5724 5729 5732 5736 5739 5741 5741 5742 5741 5740 5739 5736 5733 5730 5727 5725 5722 5720 5718 5716 5715 5714 5715 5715 5715 5713 5712 5710 5708
5580 5593 5606 5617 5627 5640 5651 5663 5672 5682 5690 5700 5705 5711 5717 5724 5727 5731 5734 5738 5739 5740 5741 5741 5740 5739 5737 5735 5733 5731 5729 5728 5726 5725 5722 5720 5719 5718 5717 5716 5714 5711 5709 5706
5573 5586 5599 5611 5622 5635 5647 5658 5668 5677 5687 5694 5700 5708 5716 5720 5724 5728 5732 5735 5737 5739 5740 5740 5740 5739 5738 5737 5735 5733 5731 5730 5729 5727 5725 5723 5721 5720 5718 5716 5713 5710 5707 5703
5565 5579 5593 5605 5617 5630 5642 5653 5664 5673 5682 5688 5698 5704 5711 5717 5721 5726 5730 5733 5736 5738 5739 5739 5740 5738 5737 5736 5736 5734 5733 5731 5730 5728 5725 5723 5722 5720 5717 5715 5711 5707 5703 5699
5558 5573 5586 5599 5613 5625 5637 5649 5659 5669 5679 5685 5695 5702 5708 5714 5719 5723 5728 5731 5734 5736 5738 5739 5739 5738 5736 5735 5735 5734 5732 5731 5730 5728 5726 5724 5721 5719 5715 5712 5708 5704 5699 5696
5552 5567 5581 5593 5608 5620 5632 5643 5653 5663 5674 5683 5690 5699 5705 5711 5717 5721 5726 5729 5732 5734 5736 5737 5738 5737 5736 5735 5734 5733 5731 5730 5729 5727 5724 5722 5720 5717 5713 5709 5705 5702 5698 5693
5547 5562 5575 5589 5604 5617 5629 5640 5652 5661 5671 5681 5689 5695 5703 5709 5714 5719 5724 5727 5729 5732 5734 5736 5736 5735 5734 5734 5733 5732 5730 5729 5727 5725 5723 5721 5718 5715 5711 5707 5703 5699 5695 5690
5542 5558 5572 5587 5601 5616 5626 5638 5648 5658 5667 5676 5683 5692 5700 5706 5712 5717 5721 5724 5727 5729 5732 5733 5734 5734 5733 5732 5731 5731 5730 5728 5727 5725 5722 5719 5716 5712 5709 5705 5700 5696 5691 5687
5540 5555 5570 5584 5598 5613 5624 5633 5643 5654 5663 5670 5681 5690 5699 5705 5710 5716 5719 5722 5724 5727 5729 5731 5732 5732 5732 5732 5731 5730 5729 5728 5726 5724 5721 5718 5715 5711 5707 5702 5698 5693 5689 5684
5538 5554 5567 5582 5596 5609 5620 5630 5639 5649 5659 5670 5679 5688 5697 5703 5708 5713 5717 5720 5722 5725 5728 5729 5730 5731 5731 5731 5731 5730 5729 5728 5726 5724 5720 5717 5713 5709 5705 5700 5695 5691 5686 5681
5537 5550 5566 5581 5594 5607 5616 5625 5635 5646 5656 5667 5676 5686 5694 5700 5706 5710 5714 5718 5720 5723 5727 5728 5729 5731 5731 5731 5731 5730 5729 5727 5725 5722 5719 5714 5711 5707 5702 5698 5693 5688 5684 5682
5535 5551 5565 5579 5593 5603 5610 5620 5632 5642 5655 5666 5676 5685 5692 5699 5704 5708 5712 5716 5719 5722 5725 5727 5729 5730 5731 5731 5730 5730 5729 5727 5724 5721 5717 5713 5709 5704 5699 5695 5690 5688 5686 5684
5535 5549 5563 5576 5584 5594 5605 5616 5630 5642 5654 5664 5675 5684 5690 5696 5702 5707 5711 5715 5718 5722 5725 5727 5729 5729 5730 5731 5730 5730 5728 5725 5722 5719 5715 5710 5706 5701 5697 5693 5691 5690 5689 5687
5535 5548 5561 5570 5581 5591 5606 5620 5634 5648 5660 5668 5676 5683 5690 5697 5702 5706 5710 5715 5718 5722 5725 5727 5728 5729 5730 5730 5730 5729 5727 5724 5721 5717 5713 5708 5703 5699 5695 5694 5694 5694 5692 5689
5535 5547 5559 5568 5580 5596 5609 5624 5639 5651 5659 5667 5675 5683 5689 5695 5699 5705 5710 5714 5717 5721 5725 5727 5727 5728 5729 5729 5729 5728 5726 5723 5720 5715 5711 5706 5701 5698 5697 5698 5698 5697 5695 5693
5534 5547 5557 5569 5583 5601 5616 5629 5639 5648 5658 5665 5672 5679 5686 5692 5697 5704 5709 5714 5718 5721 5724 5726 5726 5727 5728 5728 5728 5727 5725 5722 5718 5714 5709 5703 5700 5699 5700 5701 5700 5699 5698 5697
5534 5547 5558 5573 5590 5604 5618 5629 5639 5648 5656 5664 5671 5678 5685 5692 5697 5703 5709 5713 5717 5720 5723 5724 5725 5726 5727 5727 5727 5726 5724 5721 5717 5713 5707 5703 5701 5702 5703 5703 5704 5703 5703 5701